Location: Morisset
(33.1080°S, 151.4871°E)
Time: 09:01:03
(UTC+00:00)

Cosmos 2369 Rocket - Pass Details

Date: 29 October 2020
Orbit: 827 x 854 km, 71.0° (Epoch: 27 November)

Event Time Altitude Azimuth Distance (km) Brightness Sun altitude
Exits shadow 18:17:52 - 277° (W) 2,522 4.1 -8.5°
Reaches altitude 10° 18:18:08 10° 275° (W) 2,460 4.0 -8.4°
Maximum altitude 18:21:36 16° 237° (WSW) 2,046 3.9 -7.8°
Drops below altitude 10° 18:25:04 10° 199° (SSW) 2,466 4.7 -7.1°
Sets 18:28:31 0° 178° (S) 3,404 5.7 -6.4°
